Regional Weather Roundup
Issued by NWS Charleston, SC

Current Version | Previous Version | Text Only | Print | Product List | Glossary Off
Versions: 1 2 3 4 5 6 7 8 9 10 11 12 13 14 15 16 17 18 19 20 21 22 23 24 25 26 27 28 29 30 31 32 33 34 35 36 37 38 39 40 41 42 43 44 45 46 47 48 49 50

172
ASUS42 KCHS 091427
RWRCHS

REGIONAL WEATHER ROUNDUP
NATIONAL WEATHER SERVICE CHARLESTON SC
900 AM EST FRI DEC 09 2016

NOTE: "FAIR" INDICATES FEW OR NO CLOUDS BELOW 12,000 FEET WITH NO
SIGNIFICANT WEATHER AND/OR OBSTRUCTIONS TO VISIBILITY.

NOT ALL STATIONS ARE QUALITY CONTROLLED. USE DATA WITH CAUTION...
ESPECIALLY DEWPOINT OBSERVATIONS.

SCZ027-030-031-034>040-042>050-091500-
...SOUTHEAST SOUTH CAROLINA...

CITY           SKY/WX    TMP DP  RH WIND       PRES   REMARKS
N CHARLESTON   MOSUNNY   43  19  38 N15       30.41R
WATERFRONT PRK   N/A     42  28  57 N12G21    30.38R
MOUNT PLEASANT FAIR      41  25  52 N7        30.42
JOHNS ISLAND   FAIR      43  21  42 N12       30.41
PINOPOLIS        N/A     39  27  60 N15       30.33R WCI  31
MONCKS CORNER  FAIR      41  19  42 NE9       30.43R
SUMMERVILLE    NOT AVBL
BEAUFORT MCAS  SUNNY     43  25  49 N9        30.42R
BEAUFORT ARPT  FAIR      43  27  52 N12       30.42R HAZE
HILTON HEAD IS NOT AVBL
WALTERBORO     SUNNY     43  27  52 N5        30.45R
ALLENDALE      FAIR      39  23  52 N7G13     30.44R WCI  34

...SOUTHERN MIDLANDS AND PEE DEE...

CITY           SKY/WX    TMP DP  RH WIND       PRES   REMARKS
GEORGETOWN     NOT AVBL
KINGSTREE      FAIR      36  19  51 N6        30.44R WCI  31
ORANGEBURG     SUNNY     38  18  44 N8        30.43R WCI  32
BARNWELL       NOT AVBL
AIKEN          FAIR      36  19  51 N7        30.46R WCI  30
MANNING        FAIR      37  21  52 N10       30.44R WCI  30
COLUMBIA       SUNNY     39  16  39 N6        30.43R WCI  35
SUMTER         SUNNY     37  17  45 N12       30.41R WCI  29
FLORENCE       SUNNY     37  20  50 N10       30.43R WCI  30
MYRTLE BEACH   SUNNY     39  19  45 N17       30.42R WCI  30
N MYRTLE BEACH SUNNY     38  22  52 N12G18    30.39R WCI  30

$$

GAZ063-065-086>088-099>101-113>116-118-119-134>141-150-091500-
...SOUTHEAST GEORGIA...

CITY           SKY/WX    TMP DP  RH WIND       PRES   REMARKS
SAVANNAH ARPT  MOSUNNY   42  26  53 N9        30.43R
HUNTER AAF     SUNNY     43  29  59 N10       30.39R
FORT STEWART   SUNNY     42  25  49 N9        30.41R
STATESBORO     SUNNY     41  28  59 N8        30.45R
SYLVANIA       SUNNY    N/A N/A N/A N8        30.45R
CLAXTON        FAIR      42  27  57 NW6       30.45R

...CSRA...CENTRAL AND FAR SOUTHEAST GEORGIA...

CITY           SKY/WX    TMP DP  RH WIND       PRES   REMARKS
THOMSON        SUNNY     35  26  69 CALM      30.50R
AUGUSTA-BUSH   SUNNY     39  25  57 N6        30.44R WCI  35
AUGUSTA-DANIEL SUNNY     37  22  54 NW7       30.44R WCI  32
SWAINSBORO     FAIR      37  23  56 NW7       30.46R WCI  32
VIDALIA        MOSUNNY   39  28  65 N7        30.45R WCI  34
EASTMAN        FAIR      38  10  31 N7        30.49R WCI  32
HAZLEHURST     FAIR      40  22  48 N10       30.45R WCI  34
ALMA           SUNNY     40  23  50 N12G17    30.44R WCI  33
WAYCROSS       MOSUNNY   45  28  52 N12       30.44R
JESUP          FAIR      43  30  61 N7        30.44R
BAXLEY         FAIR      41  28  60 N12G17    30.44R
BRUNSWICK      MOSUNNY   45  32  61 N9        30.42R
SAINT SIMONS   MOSUNNY   43  26  51 N13       30.39R

$$

SCZ027-028-034-036>038-045-046-048>050-GAZ119-141-091500-
...LAKE AND SUPPLEMENTAL COASTAL OBSERVATIONS...

STATION/POSITION TIME  TEMP    WIND        PRES    WAVE   SWELL
                       AIR SEA DIR/SP/G            HT/PER HT/PER/DIR
                 (UTC) (F)     (DEG/KT/KT) (MB)    (FT/S) (FT/S/D)
WINYAH BAY       1345   39     350/  6     1029.0R
LAKE MURRAY      1350   37     350/  2/  5 1029.8R
ACE BASIN NERRS  1345   41     350/  3     1029.0S
FORT PULASKI     1400   42 61   10/ 11/ 15 1030.0
SAPELO ISLAND    1400   44     350/ 13     1029.0

$$

ANZ835-935-AMZ111-154-330-350-352-354-370-450-454-472-091500-
...C-MAN AND BUOY OBSERVATIONS...

STATION/POSITION TIME  TEMP    WIND        PRES    WAVE   SWELL
                       AIR SEA DIR/SP/G            HT/PER HT/PER/DIR
                 (UTC) (F)     (DEG/KT/KT) (MB)    (FT/S) (FT/S/D)
BUOY 41004       1350   50 73   10/ 19/ 25 1027.2R   6/ 6
BUOY 41008       1350   50 63  360/ 17/ 23 1028.3R   4/ 5   2/ 60/11
FOLLY BEACH CMAN 1400   42     360/ 13/ 17 1029.9R
CAPERS NEARSHORE 1408   43 60   30/ 17/ 23 1029.2R
FRIPP NEARSHORE  1408   45 60   20/ 16/ 19 1029.6R


STATION/POSITION TIME  TEMP    WIND        PRES    WAVE   SWELL
                       AIR SEA DIR/SP/G            HT/PER HT/PER/DIR
                 (UTC) (F)     (DEG/KT/KT) (MB)    (FT/S) (FT/S/D)
5E ST. MARYS GA  1400      64                N/A     4/ 5
FRYING PAN BUOY  1410   46 72  350/ 19/ 27 1027.8
BUOY 41025       1350   44 75  350/ 17/ 23 1025.7R   5/ 7   2/ 60/ 9
CAPE LOOKOUT NC  1400   38     330/ 17/ 21 1027.1R
BUOY 41002       1350   62 74  360/ 17/ 23 1022.1R   7/ 7   3/ 30/11
BUOY 41010       NOT AVBL
ST AUGUSTINE FL  1400   48 65  330/ 17/ 21 1028.7R


$$




USA.gov is the U.S. government's official web portal to all federal, state and local government web resources and services.